Flag for Germany Weather past 2 weeks in Gross-Gerau, Hesse, Germany

Now
34 °F

Passing clouds.


Feels Like: 28 °F
Forecast: 43 / 49 °F
Wind: 7 mph from South

Location: Frankfurt-M-Flughafen Airport

Current Time: Dec 21, 2014 at 3:43:46 AM

Latest Report: Dec 21, 2014 at 3:20 AM


Visibility: N/A

Pressure: 30.42 "Hg

Humidity: 100%

Dew point: 34 °F

Location of Gross-GerauLocation

Historic Weather in Gross-Gerau — Graph

°F

Gross-Gerau temperature yesterday

Maximum temperature yesterday: 45 °F (at 12:20 AM)
Minimum temperature yesterday: 36 °F (at 6:20 AM)
Average temperature yesterday: 42 °F

Past Weeks' High & Low Weather Summary

 TemperatureHumidityPressure
High57 °F (Dec 18, 7:50 PM)100% (Dec 6, 2:20 AM)30.42 "Hg (Dec 6, 2:20 AM)
Low28 °F (Dec 8, 10:20 PM)66% (Dec 20, 12:20 AM)29.59 "Hg (Dec 12, 6:20 PM)
Average41 °F89%30.02 "Hg
* Reported Dec 6 2:20 AM — Dec 21 2:20 AM, Gross-Gerau, Weather by CustomWeather, © 2014

Note: Actual official high and low records may vary slightly from our data, if they occured in-between our weather recording intervals... More about our weather records

Advertising

Gross-Gerau weather history for previous 24 hours

 ConditionsComfort  
Time TempWeatherWind HumidityBarometerVisibility
2:20 AM
Dec 21
37 °FPassing clouds.3 mph93%30.39 "HgN/A
1:20 AM39 °FPassing clouds.7 mph87%30.36 "HgN/A
12:50 AM41 °FSprinkles. Passing clouds.16 mph87%30.36 "HgN/A
12:20 AM41 °FPassing clouds.17 mph87%30.36 "HgN/A
11:50 PM
Dec 20
41 °FPassing clouds.15 mph81%30.33 "HgN/A
11:20 PM41 °FPassing clouds.14 mph81%30.33 "HgN/A
10:50 PM41 °FPassing clouds.13 mph81%30.33 "HgN/A
10:20 PM41 °FPartly cloudy.12 mph87%30.30 "HgN/A
9:50 PM39 °FPassing clouds.12 mph93%30.30 "HgN/A
9:20 PM41 °FSprinkles. Partly cloudy.13 mph87%30.27 "HgN/A
8:50 PM43 °FSprinkles. Partly cloudy.9 mph81%30.24 "HgN/A
8:20 PM45 °FPassing clouds.14 mph71%30.21 "HgN/A
7:50 PM45 °FPassing clouds.17 mph71%30.21 "HgN/A
7:20 PM45 °FPartly cloudy.18 mph71%30.18 "HgN/A
6:50 PM45 °FPartly cloudy.18 mph71%30.18 "HgN/A
6:20 PM45 °FPartly cloudy.17 mph71%30.18 "HgN/A
5:50 PM45 °FPartly cloudy.18 mph71%30.15 "HgN/A
5:20 PM45 °FPartly cloudy.21 mph71%30.15 "HgN/A
4:50 PM45 °FPartly cloudy.18 mph71%30.15 "HgN/A
4:20 PM45 °FBroken clouds.21 mph71%30.15 "HgN/A
3:50 PM45 °FBroken clouds.17 mph76%30.12 "HgN/A
3:20 PM45 °FBroken clouds.20 mph76%30.12 "HgN/A
2:50 PM45 °FSprinkles. Broken clouds.16 mph76%30.15 "HgN/A
2:20 PM43 °FSprinkles. Broken clouds.15 mph87%30.15 "HgN/A
1:50 PM45 °FLight rain. Broken clouds.17 mph76%30.15 "HgN/A
1:20 PM45 °FBroken clouds.16 mph76%30.15 "HgN/A
12:50 PM43 °FSprinkles. Broken clouds.16 mph81%30.15 "HgN/A
12:20 PM43 °FSprinkles. Partly sunny.18 mph81%30.18 "HgN/A
11:50 AM45 °FSprinkles. Partly sunny.15 mph76%30.18 "HgN/A
11:20 AM43 °FLight rain. Broken clouds.15 mph76%30.21 "HgN/A
10:50 AM43 °FBroken clouds.18 mph76%30.21 "HgN/A
10:20 AM43 °FPartly sunny.16 mph76%30.21 "HgN/A
9:50 AM41 °FPartly sunny.15 mph81%30.21 "HgN/A
9:20 AM39 °FBroken clouds.14 mph87%30.21 "HgN/A
8:50 AM39 °FScattered clouds.13 mph87%30.24 "HgN/A
8:20 AM39 °FPassing clouds.8 mph87%30.24 "HgN/A
7:50 AM36 °FPassing clouds.10 mph93%30.24 "HgN/A
7:20 AM37 °FPassing clouds.9 mph87%30.24 "HgN/A
6:50 AM36 °FPassing clouds.6 mph93%30.24 "HgN/A
6:20 AM36 °FPassing clouds.8 mph93%30.21 "HgN/A
5:50 AM39 °FPassing clouds.8 mph81%30.21 "HgN/A
5:20 AM39 °FPassing clouds.9 mph81%30.21 "HgN/A
4:50 AM39 °FPassing clouds.12 mph81%30.21 "HgN/A
4:20 AM39 °FPassing clouds.10 mph81%30.21 "HgN/A
3:50 AM37 °FPassing clouds.9 mph87%30.21 "HgN/A
3:20 AM41 °FPassing clouds.9 mph81%30.21 "HgN/A
Weather by CustomWeather, © 2014

See weather overviewHow to use our weather pages